TimeEDT,TemperatureF,Dew PointF,Humidity,Sea Level PressureIn,VisibilityMPH,Wind Direction,Wind SpeedMPH,Gust SpeedMPH,PrecipitationIn,Events,Conditions,WindDirDegrees,DateUTC
12:53 AM,51.1,46.0,83,30.17,10.0,SSW,3.5,-,N/A,,Clear,200,2013-05-07 04:53:00
1:53 AM,50.0,46.0,86,30.16,10.0,Calm,Calm,-,N/A,,Clear,0,2013-05-07 05:53:00
2:53 AM,46.9,45.0,93,30.16,9.0,Calm,Calm,-,N/A,,Clear,0,2013-05-07 06:53:00
3:53 AM,45.0,43.0,93,30.16,3.0,Calm,Calm,-,N/A,,Clear,0,2013-05-07 07:53:00
3:55 AM,44.6,44.6,100,30.16,1.5,Calm,Calm,-,N/A,,Clear,0,2013-05-07 07:55:00
4:10 AM,44.6,42.8,93,30.16,4.0,Calm,Calm,-,N/A,,Partly Cloudy,0,2013-05-07 08:10:00
4:19 AM,44.6,42.8,93,30.16,2.5,Calm,Calm,-,N/A,,Partly Cloudy,0,2013-05-07 08:19:00
4:26 AM,44.6,42.8,93,30.16,5.0,Calm,Calm,-,N/A,,Clear,0,2013-05-07 08:26:00
4:53 AM,44.1,43.0,96,30.17,2.0,Calm,Calm,-,N/A,,Partly Cloudy,0,2013-05-07 08:53:00
4:55 AM,44.6,42.8,93,30.16,1.0,Calm,Calm,-,N/A,,Mist,0,2013-05-07 08:55:00
5:06 AM,44.6,42.8,93,30.16,2.5,Calm,Calm,-,N/A,,Partly Cloudy,0,2013-05-07 09:06:00
5:13 AM,46.4,42.8,87,30.16,10.0,Calm,Calm,-,N/A,,Partly Cloudy,0,2013-05-07 09:13:00
5:43 AM,42.8,41.0,93,30.16,1.2,Calm,Calm,-,N/A,,Clear,0,2013-05-07 09:43:00
5:49 AM,42.8,41.0,93,30.16,0.5,Calm,Calm,-,N/A,Fog,Fog,0,2013-05-07 09:49:00
5:53 AM,43.0,41.0,93,30.16,0.8,Calm,Calm,-,N/A,,Mist,0,2013-05-07 09:53:00
5:59 AM,42.8,41.0,93,30.16,0.2,Calm,Calm,-,N/A,Fog,Fog,0,2013-05-07 09:59:00
6:29 AM,42.8,41.0,93,30.17,1.2,Calm,Calm,-,N/A,,Overcast,0,2013-05-07 10:29:00
6:32 AM,42.8,41.0,93,30.17,4.0,Calm,Calm,-,N/A,,Overcast,0,2013-05-07 10:32:00
6:53 AM,46.0,45.0,96,30.18,10.0,Calm,Calm,-,N/A,,Mostly Cloudy,0,2013-05-07 10:53:00
7:05 AM,46.4,44.6,93,30.17,10.0,Calm,Calm,-,N/A,,Partly Cloudy,0,2013-05-07 11:05:00
7:53 AM,52.0,48.0,86,30.18,10.0,Calm,Calm,-,N/A,,Clear,0,2013-05-07 11:53:00
8:53 AM,59.0,48.9,69,30.17,10.0,Calm,Calm,-,N/A,,Clear,0,2013-05-07 12:53:00
9:53 AM,66.0,48.9,54,30.16,10.0,Calm,Calm,-,N/A,,Clear,0,2013-05-07 13:53:00
10:53 AM,71.1,48.9,45,30.17,10.0,Variable,5.8,-,N/A,,Clear,0,2013-05-07 14:53:00
11:53 AM,73.0,45.0,37,30.15,10.0,South,6.9,-,N/A,,Clear,170,2013-05-07 15:53:00
12:53 PM,75.0,45.0,34,30.13,10.0,East,4.6,16.1,N/A,,Clear,90,2013-05-07 16:53:00
1:53 PM,77.0,45.0,32,30.12,10.0,SSW,10.4,-,N/A,,Clear,200,2013-05-07 17:53:00
2:53 PM,79.0,41.0,26,30.09,10.0,South,8.1,-,N/A,,Clear,190,2013-05-07 18:53:00
3:53 PM,79.0,46.0,31,30.08,10.0,South,8.1,-,N/A,,Scattered Clouds,180,2013-05-07 19:53:00
4:53 PM,80.1,48.9,34,30.06,10.0,South,12.7,16.1,N/A,,Clear,170,2013-05-07 20:53:00
5:53 PM,75.0,53.1,46,30.08,10.0,South,13.8,-,N/A,,Clear,190,2013-05-07 21:53:00
6:53 PM,73.0,54.0,51,30.09,10.0,South,11.5,-,N/A,,Clear,170,2013-05-07 22:53:00
7:53 PM,70.0,54.0,57,30.11,10.0,South,9.2,-,N/A,,Clear,180,2013-05-07 23:53:00
8:53 PM,66.9,54.0,63,30.13,10.0,SSE,4.6,-,N/A,,Clear,160,2013-05-08 00:53:00
9:53 PM,63.0,54.0,72,30.15,10.0,South,5.8,-,N/A,,Clear,170,2013-05-08 01:53:00
10:53 PM,63.0,55.0,75,30.15,10.0,SSE,4.6,-,N/A,,Clear,160,2013-05-08 02:53:00
11:53 PM,60.1,54.0,80,30.16,10.0,South,3.5,-,N/A,,Clear,190,2013-05-08 03:53:00